[[{"header":{"parameterUnit":"m.s-1","parameterCategory":1,"la1":30.2991,"la2":30.254,"lo1":-89.0895,"lo2":-89.0444,"dy":0.0017,"dx":0.0017,"nx":28,"ny":28,"refTime":"2023-10-16T21:00:00:Z","depth":0,"parameterNumber":2,"parameterNumberName":"U-component_of_WINDS"},"data":[0,0,0,0,0,0,0,0,0,0,0,0,0,0,0,0,0,0,0,0,0,0,0,0,0,0,0,0,0,0,0,0,0,0,0,0,0,0,0,0,0,0,0,0,0,0,0,0,0,0,0,0,0,0,0,0,0,0,1.5854,1.5853,0,1.5785,1.5784,1.5783,1.5749,1.5749,1.5749,1.5749,1.5673,1.5671,1.5669,0,0,0,0,0,0,0,0,0,0,0,0,0,1.5951,1.5949,1.5854,1.5853,1.5853,1.5785,1.5784,1.5783,1.5749,1.5749,1.5749,1.5749,1.5673,1.5671,1.5669,0,0,0,0,0,0,0,0,0,0,0,0,0,1.5898,1.5949,1.5854,1.5827,1.5824,1.5785,1.5784,1.5783,1.5749,1.5749,1.5749,1.5749,1.5674,1.5671,1.5668,1.5649,0,0,1.5659,1.5658,0,0,0,0,0,0,0,0,1.5901,1.5894,1.5832,1.5829,1.5826,1.5776,1.579,1.5738,1.5749,1.5777,1.5749,1.5749,1.5707,1.5701,1.5688,1.5646,1.5643,1.5659,1.5657,1.5656,1.5655,0,0,0,0,0,0,0,1.5905,1.5897,1.5827,1.5831,1.5827,1.5817,1.5809,1.578,1.5743,1.5775,1.5772,1.5765,1.5705,1.5691,1.5686,1.5641,1.5659,1.5656,1.5654,1.5653,1.5579,1.5578,0,0,0,0,0,0,1.5914,1.5901,1.5829,1.5825,1.5864,1.5815,1.5807,1.5792,1.5743,1.5736,1.5765,1.5763,1.5696,1.5689,1.5683,1.5657,1.5656,1.5653,1.5651,1.5579,1.5578,1.5578,0,0,0,0,0,0,1.5916,1.5908,1.5832,1.5862,1.5851,1.5813,1.5797,1.579,1.5776,1.5735,1.5728,1.5758,1.5696,1.5687,1.5658,1.5654,1.5651,1.5649,1.5579,1.5579,1.5578,1.5605,0,0,0,0,0,0,1.5919,1.5909,1.5902,1.5862,1.585,1.581,1.5797,1.5789,1.5772,1.5769,1.5727,1.572,1.5695,1.5663,1.5655,1.5649,1.5646,1.5579,1.5579,1.5578,1.5604,1.5605,1.5607,0,0,0,0,0,1.5922,1.5912,1.5902,1.5894,1.5842,1.581,1.5802,1.5776,1.5772,1.5764,1.5738,1.5721,1.5655,1.566,1.5651,1.5644,1.5579,1.5579,1.5579,1.5603,1.5605,1.5607,0,0,0,0,0,0,1.5951,1.5906,1.5895,1.5871,1.5845,1.5804,1.5794,1.5779,1.5751,1.575,1.5716,1.5707,1.568,1.5659,1.5665,1.5623,1.5615,1.5613,1.5638,1.5639,1.564,1.5645,1.5644,0,0,0,0,0,1.5955,1.5934,1.5895,1.5878,1.5865,1.5832,1.5817,1.5799,1.5769,1.5757,1.5729,1.5699,1.5671,1.5654,1.5626,1.5601,1.559,1.5592,1.5593,1.5594,1.5592,1.5576,1.5576,1.5577,1.5577,1.5577,0,0,1.5962,1.5935,1.5924,1.5883,1.586,1.5838,1.5823,1.58,1.5782,1.5753,1.5724,1.5702,1.5666,1.5639,1.5625,1.562,1.559,1.5594,1.5595,1.5592,1.5575,1.5575,1.5575,1.5577,1.5577,1.5577,0,0,1.5964,1.5942,1.5925,1.5902,1.5868,1.5846,1.5842,1.5803,1.5788,1.5759,1.5736,1.5714,1.5667,1.5643,1.5624,1.5616,1.5599,1.5607,1.5614,1.5598,1.5598,1.5598,1.5593,1.5593,1.5606,1.5606,1.5606,0,1.5976,1.5944,1.5917,1.5896,1.5878,1.5852,1.5833,1.5812,1.577,1.5758,1.5753,1.5694,1.5669,1.5634,1.5632,1.5618,1.5611,1.5612,1.56,1.56,1.5599,1.5595,1.5593,1.5607,1.5607,1.5607,1.5607,0,1.596,1.5938,1.5927,1.589,1.587,1.585,1.5819,1.5803,1.5786,1.5763,1.5733,1.5701,1.5666,1.5657,1.564,1.5619,1.5617,1.5607,1.5599,1.5601,1.5596,1.5594,1.5609,1.5609,1.5608,1.5608,0,0,1.5978,1.5926,1.5922,1.5904,1.5865,1.5846,1.5824,1.5791,1.5777,1.5749,1.5728,1.569,1.568,1.5659,1.5638,1.5625,1.5619,1.5616,1.5614,1.5617,1.5593,1.56,1.5599,1.5608,1.5607,1.5607,1.5595,0,1.5973,1.5935,1.591,1.588,1.5858,1.5833,1.5813,1.5786,1.5764,1.574,1.5715,1.5688,1.5678,1.5665,1.565,1.5623,1.5613,1.5623,1.5586,1.5585,1.5596,1.5597,1.5605,1.5596,1.5594,1.5593,1.5593,0,1.5963,1.5937,1.5906,1.5868,1.5858,1.5841,1.5809,1.5787,1.5755,1.574,1.5716,1.5696,1.5669,1.5664,1.5626,1.5633,1.5616,1.56,1.5599,1.5594,1.5589,1.5591,1.5592,1.5591,1.559,1.559,1.559,0,1.5978,1.5935,1.5911,1.5896,1.5852,1.584,1.5821,1.5789,1.577,1.5741,1.5729,1.5697,1.5679,1.5653,1.5624,1.5623,1.5588,1.5581,1.5573,1.5574,1.5567,1.5567,1.5565,1.5557,1.5557,1.5557,1.5557,0,1.5975,1.5957,1.5917,1.5902,1.588,1.585,1.5828,1.5807,1.5778,1.5757,1.5732,1.5712,1.5675,1.565,1.5626,1.5598,1.559,1.5575,1.5569,1.5577,1.5579,1.5565,1.5565,1.5557,1.5557,1.5557,1.5557,0,1.5988,1.5961,1.5933,1.5893,1.5883,1.5868,1.5833,1.5816,1.5793,1.5766,1.5758,1.5721,1.569,1.5659,1.5616,1.56,1.5572,1.5564,1.5584,1.558,1.5574,1.5575,1.5562,1.5558,1.5554,1.5554,1.5554,0,1.5988,1.5974,1.5933,1.5918,1.5899,1.5875,1.5857,1.5827,1.5808,1.577,1.5757,1.5725,1.5697,1.5648,1.5616,1.5583,1.5574,1.5572,1.5569,1.5577,1.5573,1.5574,1.5571,1.5573,1.5573,1.5573,1.5573,0,1.599,1.5978,1.5953,1.5923,1.5902,1.5877,1.5851,1.5839,1.5803,1.5783,1.5752,1.5731,1.5689,1.5656,1.5619,1.5597,1.5578,1.5574,1.5571,1.5578,1.559,1.5583,1.5586,1.5575,1.5574,1.5574,1.5574,1.5574,1.5996,1.5982,1.5951,1.5924,1.5901,1.5877,1.5859,1.5834,1.5808,1.5772,1.5756,1.5724,1.569,1.5639,1.5617,1.5591,1.5586,1.5581,1.5579,1.5578,1.558,1.5595,1.5584,1.5584,1.5584,1.5584,1.5584,0,1.5996,1.5975,1.5951,1.5915,1.5894,1.588,1.585,1.5832,1.5805,1.5776,1.575,1.5713,1.5682,1.5647,1.5613,1.5598,1.5589,1.559,1.559,1.5585,1.5587,1.5593,1.5598,1.5598,1.5598,1.5598,1.5598,1.5598,1.5994,1.5968,1.5952,1.5914,1.5892,1.5863,1.5847,1.5823,1.58,1.5761,1.5735,1.5714,1.5682,1.5645,1.5614,1.5605,1.5593,1.5596,1.5584,1.5586,1.5585,1.5584,1.559,1.5594,1.5594,1.5584,1.5584,1.5584]},{"header":{"parameterUnit":"m.s-1","parameterCategory":1,"la1":30.2991,"la2":30.254,"lo1":-89.0895,"lo2":-89.0444,"dy":0.0017,"dx":0.0017,"nx":28,"ny":28,"refTime":"2023-10-16T21:00:00:Z","depth":0,"parameterNumber":3,"parameterNumberName":"V-component_of_WINDS"},"data":[0,0,0,0,0,0,0,0,0,0,0,0,0,0,0,0,0,0,0,0,0,0,0,0,0,0,0,0,0,0,0,0,0,0,0,0,0,0,0,0,0,0,0,0,0,0,0,0,0,0,0,0,0,0,0,0,0,0,-4.6014,-4.6016,0,-4.6218,-4.622,-4.6223,-4.6168,-4.6163,-4.6159,-4.6156,-4.636,-4.6369,-4.6378,0,0,0,0,0,0,0,0,0,0,0,0,0,-4.5574,-4.5583,-4.6014,-4.6017,-4.6019,-4.6218,-4.622,-4.6223,-4.6168,-4.6163,-4.6158,-4.6154,-4.6357,-4.6368,-4.6379,0,0,0,0,0,0,0,0,0,0,0,0,0,-4.577,-4.5585,-4.6014,-4.6016,-4.6018,-4.6217,-4.622,-4.6224,-4.6169,-4.6163,-4.6157,-4.6151,-4.6353,-4.6367,-4.638,-4.6589,0,0,-4.6423,-4.6429,0,0,0,0,0,0,0,0,-4.5759,-4.5786,-4.6013,-4.6016,-4.6019,-4.6161,-4.614,-4.6346,-4.6171,-4.6112,-4.6155,-4.6148,-4.6299,-4.6316,-4.6368,-4.6598,-4.6607,-4.6424,-4.6432,-4.6438,-4.6442,0,0,0,0,0,0,0,-4.5746,-4.5777,-4.6094,-4.6016,-4.602,-4.6006,-4.6027,-4.6179,-4.6237,-4.6116,-4.6113,-4.6138,-4.6299,-4.6355,-4.6372,-4.661,-4.6424,-4.6436,-4.6445,-4.645,-4.7023,-4.7029,0,0,0,0,0,0,-4.573,-4.5766,-4.6088,-4.6101,-4.5871,-4.6018,-4.6042,-4.6122,-4.6235,-4.6247,-4.6143,-4.6135,-4.6334,-4.6356,-4.6379,-4.6632,-4.6438,-4.6451,-4.6459,-4.7016,-4.7024,-4.7032,0,0,0,0,0,0,-4.5721,-4.576,-4.608,-4.5933,-4.5972,-4.6033,-4.6122,-4.6129,-4.6185,-4.6255,-4.6265,-4.619,-4.633,-4.636,-4.6538,-4.6639,-4.6458,-4.647,-4.7008,-4.7018,-4.7028,-4.7139,0,0,0,0,0,0,-4.5709,-4.5757,-4.5837,-4.5935,-4.5981,-4.6236,-4.6128,-4.6137,-4.6209,-4.62,-4.6302,-4.6312,-4.6328,-4.6517,-4.6552,-4.6654,-4.6481,-4.6999,-4.7012,-4.7025,-4.7126,-4.7152,-4.7173,0,0,0,0,0,-4.5693,-4.5859,-4.5841,-4.588,-4.6083,-4.6242,-4.6268,-4.6283,-4.6218,-4.6299,-4.6344,-4.6309,-4.6622,-4.6536,-4.6574,-4.6683,-4.6993,-4.7009,-4.7024,-4.7116,-4.7147,-4.7173,0,0,0,0,0,0,-4.5769,-4.5872,-4.5853,-4.6056,-4.6141,-4.6232,-4.6335,-4.6315,-4.6419,-4.6406,-4.6419,-4.6443,-4.6625,-4.6671,-4.6574,-4.6891,-4.6797,-4.6821,-4.6855,-4.6884,-4.6907,-4.6893,-4.6493,0,0,0,0,0,-4.581,-4.5932,-4.6014,-4.6185,-4.6228,-4.6275,-4.6345,-4.6349,-4.6437,-4.6473,-4.6531,-4.6617,-4.6734,-4.6811,-4.6923,-4.7132,-4.7154,-4.7225,-4.7249,-4.7268,-4.7289,-4.7404,-4.7438,-4.7082,-4.7082,-4.7082,0,0,-4.5894,-4.5965,-4.6041,-4.6202,-4.6268,-4.6394,-4.6305,-4.6441,-4.6535,-4.6493,-4.6666,-4.6711,-4.6808,-4.7003,-4.7091,-4.7047,-4.7391,-4.7287,-4.7302,-4.7313,-4.7424,-4.7457,-4.7487,-4.7093,-4.7091,-4.7089,0,0,-4.6113,-4.6179,-4.6329,-4.6398,-4.6501,-4.6531,-4.6567,-4.6662,-4.6692,-4.6865,-4.6837,-4.6947,-4.7149,-4.722,-4.7282,-4.7529,-4.7502,-4.7565,-4.7688,-4.7801,-4.7829,-4.7853,-4.7944,-4.7976,-4.7585,-4.7586,-4.7586,0,-4.6205,-4.6395,-4.6408,-4.6549,-4.6621,-4.659,-4.6742,-4.6808,-4.6941,-4.6991,-4.6939,-4.7194,-4.7256,-4.7468,-4.7529,-4.7579,-4.7621,-4.7554,-4.7824,-4.7849,-4.7872,-4.7958,-4.7992,-4.7593,-4.7592,-4.7591,-4.7591,0,-4.6504,-4.6636,-4.6745,-4.6877,-4.696,-4.7106,-4.7141,-4.7224,-4.7221,-4.7257,-4.7434,-4.7508,-4.7636,-4.7686,-4.7684,-4.7899,-4.7868,-4.782,-4.7727,-4.7913,-4.7994,-4.8027,-4.7603,-4.7601,-4.7598,-4.7597,0,0,-4.6777,-4.6916,-4.6956,-4.7016,-4.7127,-4.7229,-4.7373,-4.7499,-4.7571,-4.7664,-4.7785,-4.7957,-4.7915,-4.7985,-4.799,-4.8089,-4.8283,-4.8029,-4.8032,-4.8076,-4.8526,-4.8563,-4.8601,-4.8264,-4.8271,-4.8276,-4.8519,0,-4.7007,-4.7263,-4.728,-4.7511,-4.7633,-4.7606,-4.7732,-4.7813,-4.785,-4.7959,-4.7998,-4.8121,-4.8054,-4.8097,-4.8193,-4.8239,-4.8374,-4.8221,-4.8378,-4.8384,-4.8357,-4.8643,-4.8683,-4.8909,-4.855,-4.8556,-4.856,0,-4.731,-4.7415,-4.7659,-4.7755,-4.7807,-4.792,-4.8038,-4.8142,-4.8233,-4.8253,-4.8334,-4.8326,-4.8473,-4.8373,-4.8577,-4.8473,-4.8538,-4.857,-4.8579,-4.8596,-4.8484,-4.867,-4.8981,-4.9016,-4.8609,-4.8605,-4.8602,0,-4.7488,-4.7689,-4.7862,-4.7914,-4.8029,-4.811,-4.8161,-4.8247,-4.8322,-4.8425,-4.8474,-4.8591,-4.8656,-4.8747,-4.8771,-4.8696,-4.8975,-4.8877,-4.8996,-4.8996,-4.9058,-4.9054,-4.9386,-4.9096,-4.9095,-4.9095,-4.9094,0,-4.7745,-4.7895,-4.7944,-4.805,-4.8218,-4.8236,-4.8401,-4.8447,-4.8524,-4.8639,-4.8621,-4.8728,-4.8752,-4.8865,-4.8884,-4.9051,-4.9079,-4.9099,-4.9103,-4.9103,-4.9101,-4.9147,-4.9133,-4.9104,-4.9102,-4.91,-4.9098,0,-4.7972,-4.801,-4.8197,-4.8292,-4.8319,-4.8439,-4.8519,-4.8621,-4.8656,-4.8801,-4.8836,-4.889,-4.9022,-4.9054,-4.921,-4.9222,-4.9421,-4.9408,-4.9391,-4.9391,-4.9509,-4.9498,-4.9884,-4.9936,-4.961,-4.9613,-4.9616,0,-4.8135,-4.825,-4.8358,-4.8435,-4.849,-4.8613,-4.8691,-4.8712,-4.8793,-4.8908,-4.8996,-4.9126,-4.9231,-4.9442,-4.9494,-4.9614,-4.9605,-4.9732,-4.9623,-4.962,-4.961,-4.9604,-4.9617,-4.9754,-4.9757,-4.976,-4.9762,0,-4.842,-4.8433,-4.8547,-4.8668,-4.8762,-4.8857,-4.8949,-4.9012,-4.9046,-4.9138,-4.9273,-4.9355,-4.9515,-4.9645,-4.9765,-4.9817,-4.9797,-4.9796,-4.983,-4.9832,-4.9819,-4.983,-4.945,-4.9787,-4.9785,-4.9783,-4.9782,-4.9781,-4.8622,-4.8724,-4.8817,-4.8944,-4.9015,-4.9102,-4.9203,-4.9251,-4.9365,-4.9499,-4.9504,-4.9651,-4.9741,-4.9901,-4.996,-5.0075,-5.0036,-5.0085,-5.0098,-5.0111,-5.0123,-4.9798,-5.0096,-5.0096,-5.0095,-5.0095,-5.0094,0,-4.8908,-4.8966,-4.9083,-4.9213,-4.9314,-4.9286,-4.9386,-4.9472,-4.9603,-4.9688,-4.9793,-4.9949,-5.0075,-5.0137,-5.0262,-5.0342,-5.0336,-5.0374,-5.037,-5.0383,-5.0149,-5.0108,-5.0378,-5.0378,-5.0377,-5.0377,-5.0377,-5.0377,-4.9069,-4.9242,-4.9267,-4.9475,-4.9532,-4.9678,-4.9738,-4.9817,-4.9886,-5.0062,-5.0167,-5.0208,-5.0285,-5.0415,-5.0529,-5.0544,-5.0592,-5.0636,-5.0646,-5.0427,-5.0399,-5.0371,-5.0333,-5.0645,-5.0646,-5.0871,-5.0873,-5.0874]}]]